SCP
0 0 0 0 0 0 0 0 0 0 0 0 0 0 0 0 0 0 0 0 0 0 0 0 0 0 0 0 0 0 0 0 0 0 0 0 0 0 0 0 0 0 0
0 0 0 0 0 0 0 0 0 0 0 0 0 0 0 0 0 0 0 0 0 0 0 0 0 0 0 0 0 0 0 0 0 0 0 0 0 0 0 0 0 0 0
0 0 0 0 0 0 0 0 0 0 0 0 0 0 0 0 0 0 0 0 0 0 0 0 0 0 0 0 0 0 0 0 0 0 0 0 0 0 0 0 0 0 0
0 0 0 0 0 0 0 0 0 0 0 0 0 0 0 0 0 0 0 0 0 0 0 0 0 0 0 0 0 0 0 0 0 0 0 0 0 0 0 0 0 0 0
0 0 0 0 0 0 0 0 0 0 0 0 0 0 0 0 0 0 0 0 0 0 0 0 0 0 0 0 0 0 0 0 0 0 0 0 0 0 0 0 0 0 0
0 0 0 0 0 0 0 0 0 0 0 0 0 0 0 0 0 0 0 0 0 0 0 0 0 0 0 0 0 0 0 0 0 0 0 0 0 0 0 0 0 0 0
0 0 0 0 0 0 0 0 0 0 0 0 0 0 0 0 0 0 0 0 0 0 0 0 0 0 0 0 0 0 0 0 0 0 0 0 0 0 0 0 0 0 0
0 0 0 0 0 0 0 0 0 0 0 0 0 0 0 0 0 0 0 0 0 0 0 0 0 0 0 0 0 0 0 0 0 0 0 0 0 0 0 0 0 0 0
0 0 0 0 0 0 0 0 0 0 0 0 0 0 0 0 0 0 0 0 0 0 0 0 0 0 0 0 0 0 0 0 0 0 0 0 0 0 0 0 0 0 0
0 0 0 0 0 0 0 0 0 0 0 0 0 0 0 0 0 0 0 0 0 0 0 0 0 0 0 0 0 0 0 0 0 0 0 0 0 0 0 0 0 0 0
0 0 0 0 0 0 0 0 0 0 0 0 0 0 0 0 0 0 0 0 0 0 0 0 0 0 0 0 0 0 0 0 0 0 0 0 0 0 0 0 0 0 0
0 0 0 0 0 0 0 0 0 0 0 0 0 0 0 0 0 0 0 0 0 0 0 0 0 0 0 0 0 0 0 0 0 0 0 0 0 0 0 0 0 0 0
0 0 0 0 0 0 0 0 0 0 0 0 0 0 0 0 0 0 0 0 0 0 0 0 0 0 0 0 0 0 0 0 0 0 0 0 0 0 0 0 0 0 0
0 0 0 0 0 0 0 0 0 0 0 0 0 0 0 0 0 0 0 0 0 0 0 0 0 0 0 0 0 0 0 0 0 0 0 0 0 0 0 0 0 0 0
0 0 0 0 0 0 0 0 0 0 0 0 0 0 0 0 0 0 0 0 0 0 0 0 0 0 0 0 0 0 0 0 0 0 0 0 0 0 0 0 0 0 0
0 0 0 0 0 0 0 0 0 0 0 0 0 0 0 0 0 0 0 0 0 0 0 0 0 0 0 0 0 0 0 0 0 0 0 0 0 0 0 0 0 0 0
0 0 0 0 0 0 0 0 0 0 0 0 0 0 0 0 0 0 0 0 0 0 0 0 0 0 0 0 0 0 0 0 0 0 0 0 0 0 0 0 0 0 0
0 0 0 0 0 0 0 0 0 0 0 0 0 0 0 0 0 0 0 0 0 0 0 0 0 0 0 0 0 0 0 0 0 0 0 0 0 0 0 0 0 0 0
0 0 0 0 0 0 0 0 0 0 0 0 0 0 0 0 0 0 0 0 0 0 0 0 0 0 0 0 0 0 0 0 0 0 0 0 0 0 0 0 0 0 0
0 0 0 0 0 0 0 0 0 0 0 0 0 0 0 0 0 0 0 0 0 0 0 0 0 0 0 0 0 0 0 0 0 0 0 0 0 0 0 0 0 0 0
0 0 0 0 0 0 0 0 0 0 0 0 0 0 0 0 0 0 0 0 0 0 0 0 0 0 0 0 0 0 0 0 0 0 0 0 0 0 0 0 0 0 0
0 0 0 0 0 0 0 0 0 0 0 0 0 0 0 0 0 0 0 0 0 0 0 0 0 0 0 0 0 0 0 0 0 0 0 0 0 0 0 0 0 0 0
0 0 0 0 0 0 0 0 0 0 0 0 0 0 0 0 0 0 0 0 0 0 0 0 0 0 0 0 0 0 0 0 0 0 0 0 0 0 0 0 0 0 0
0 0 0 0 0 0 0 0 0 0 0 0 0 0 0 0 0 0 0 0 0 0 0 0 0 0 0 0 0 0 0 0 0 0 0 0 0 0 0 0 0 0 0
0 0 0 0 0 0 0 0 0 0 0 0 0 0 0 0 0 0 0 0 0 0 0 0 0 0 0 0 0 0 0 0 0 0 0 0 0 0 0 0 0 0 0
0 0 0 0 0 0 0 0 0 0 0 0 0 0 0 0 0 0 0 0 0 0 0 0 0 0 0 0 0 0 0 0 0 0 0 0 0 0 0 0 0 0 0
Wind_Speed
2 2 2 2 2 1 1 2 2 3 4 5 5 6 5 6 6 5 4 10 11 12 12 11 12 11 11 11 12 12 12 12 12 12 12 12 12 12 12 12 12 11 11
2 2 3 2 2 2 2 2 3 3 3 4 5 5 5 5 5 5 4 7 12 12 12 13 12 12 12 12 12 12 12 12 12 12 12 12 12 12 12 12 12 11 11
3 3 2 2 2 2 3 3 3 3 3 4 4 4 4 4 4 5 5 4 5 10 12 12 12 12 12 12 12 12 12 12 12 12 12 11 11 12 12 12 12 12 11
4 3 2 2 2 2 3 3 2 3 3 3 3 3 3 3 4 4 3 4 4 5 8 11 12 11 12 11 11 11 12 11 12 12 12 11 11 11 12 12 12 11 11
4 3 2 2 2 2 2 2 2 2 2 2 3 3 3 3 3 3 3 5 5 5 4 8 11 10 11 11 11 11 11 11 12 12 11 11 11 11 11 11 11 11 11
4 3 2 2 3 3 3 3 3 2 2 2 3 3 2 2 2 3 3 3 4 5 5 5 4 6 10 11 11 11 11 12 12 11 11 11 11 11 11 11 11 11 12
3 3 2 3 2 2 2 3 2 2 1 1 2 2 2 2 3 3 2 2 3 4 4 4 3 3 4 10 11 11 11 11 11 10 10 10 10 10 11 11 11 12 12
2 3 3 2 2 2 2 2 2 1 0 0 1 1 1 2 3 2 2 2 3 3 4 5 4 4 4 3 7 11 11 11 10 9 9 10 10 10 11 11 11 11 11
2 2 3 2 2 2 2 1 1 1 1 1 0 1 2 1 0 1 1 2 3 3 3 3 4 5 6 4 4 7 10 10 10 9 9 10 10 10 10 10 11 11 11
2 1 2 2 1 1 2 1 1 1 1 0 1 1 1 3 2 1 1 2 2 3 3 3 4 5 5 4 6 9 10 9 10 10 10 9 9 10 9 10 10 10 10
2 2 2 1 1 1 1 1 1 0 0 0 0 0 1 1 1 3 1 1 2 2 2 2 3 4 4 4 4 7 10 9 9 9 10 9 9 9 9 9 9 10 10
1 1 1 1 1 1 1 1 1 1 0 0 0 1 1 1 1 2 2 2 1 1 1 2 3 3 4 4 6 9 9 8 8 8 9 9 8 8 8 9 9 9 9
1 1 1 1 1 1 1 1 1 1 1 1 1 1 1 1 1 1 2 2 2 1 1 1 2 3 4 4 4 8 8 8 8 8 8 8 8 8 8 8 8 8 9
2 2 2 1 0 0 1 1 1 1 1 1 1 1 1 1 1 1 2 3 2 1 1 1 1 2 3 4 5 7 5 8 8 8 8 8 8 8 8 8 8 8 8
2 3 3 2 2 1 1 2 1 1 1 1 1 1 1 1 1 1 2 3 3 2 1 2 1 2 3 4 5 4 4 6 7 7 7 8 8 8 8 8 8 7 7
2 2 2 2 3 3 2 2 1 1 0 1 1 1 1 1 1 1 2 2 2 3 2 1 2 3 4 5 5 4 4 7 6 6 6 7 7 7 8 8 8 8 7
2 2 2 2 2 2 2 2 2 2 2 2 2 2 2 1 1 1 1 1 2 2 3 1 2 3 4 4 4 3 4 3 3 5 5 6 6 6 6 6 7 7 7
1 1 1 1 1 1 2 2 3 2 3 3 2 2 2 2 3 2 2 2 2 2 4 4 2 3 4 5 5 5 4 4 3 5 5 5 5 4 4 4 5 5 5
1 1 1 1 1 1 1 2 2 3 3 3 3 2 2 2 2 2 3 2 2 2 3 4 3 2 2 3 4 3 4 3 4 5 6 4 4 4 3 3 3 3 4
1 1 0 0 0 0 0 1 1 1 2 2 2 2 3 3 2 2 3 3 3 3 2 3 3 2 2 3 3 3 2 2 2 4 4 4 4 4 3 2 2 2 2
1 1 1 0 0 0 1 1 1 1 2 2 2 2 2 2 2 1 2 3 3 3 3 3 3 2 2 3 3 3 3 2 2 3 2 3 3 2 3 3 4 3 3
1 1 1 1 1 1 1 1 1 1 2 1 2 1 1 2 2 2 2 3 4 4 4 4 3 4 4 4 3 3 3 3 2 2 3 3 3 3 3 3 5 6 6
0 0 0 0 0 1 1 1 2 2 2 2 2 1 1 1 2 2 2 3 3 4 5 4 4 5 5 5 5 4 4 4 3 4 3 3 3 3 3 5 9 9 8
1 1 1 1 1 2 2 2 2 2 2 2 2 2 2 1 1 2 1 1 3 4 5 4 4 4 4 5 7 7 5 3 2 2 3 2 3 3 3 3 8 9 9
1 1 1 1 1 2 3 3 2 2 2 2 2 2 2 1 1 2 2 1 2 3 4 4 3 3 2 3 4 3 3 3 2 2 3 2 2 2 2 2 4 9 9
2 2 2 2 2 2 2 3 3 2 2 2 2 2 2 2 2 2 2 2 3 3 2 2 2 1 2 3 4 5 5 4 3 2 3 3 2 2 1 2 2 3 5
Wind_Direction
102 102 99 88 81 74 53 47 45 52 41 41 54 61 65 73 82 81 70 67 71 74 77 78 78 78 76 77 79 78 75 73 72 72 71 70 68 68 68 69 71 72 71
97 89 84 74 67 75 67 62 55 57 57 53 52 54 58 68 85 94 92 72 69 70 74 75 75 75 77 81 81 80 78 75 73 73 73 71 71 71 71 69 68 69 67
89 90 87 82 67 70 69 54 50 43 63 71 63 55 55 55 71 89 98 99 81 70 71 73 72 73 79 82 82 80 80 77 75 74 73 72 71 71 70 69 68 67 66
81 84 80 79 75 76 79 70 55 50 54 62 65 55 59 48 55 76 87 100 99 90 77 79 77 74 81 83 83 82 83 80 77 74 73 72 71 70 69 68 67 66 66
78 90 84 85 74 74 73 77 67 64 68 71 79 64 58 53 48 62 70 88 100 102 97 84 79 76 77 81 82 80 81 79 77 76 74 72 71 71 70 69 67 66 66
63 81 84 82 80 77 71 69 71 58 64 64 76 74 67 66 55 51 54 70 92 101 103 102 90 75 74 76 77 79 79 77 76 76 75 73 72 72 71 69 68 66 63
57 69 71 69 77 89 101 97 89 80 65 81 79 63 44 56 67 67 57 62 81 90 97 98 96 91 83 71 69 75 75 76 76 75 74 73 73 71 70 69 67 65 62
67 82 78 75 77 79 76 75 84 91 52 80 115 110 69 31 22 53 65 70 77 80 88 95 92 87 86 81 70 72 69 69 72 75 75 73 72 71 69 69 66 65 63
69 69 94 98 96 90 90 100 111 119 148 300 60 124 134 146 53 14 46 74 79 75 78 86 91 90 89 83 78 66 67 64 66 70 75 74 72 70 70 70 68 65 64
107 88 92 103 112 120 126 163 150 172 141 221 321 348 113 133 136 103 5 47 74 74 69 74 80 85 90 85 82 76 70 65 67 70 73 72 71 73 71 70 69 67 66
119 114 106 118 140 130 156 163 113 94 118 191 186 55 46 55 118 132 138 49 50 58 76 82 89 92 91 91 91 83 76 69 67 67 67 68 67 70 71 71 71 68 66
130 141 148 161 183 168 172 154 133 113 59 280 103 120 135 136 148 137 148 150 113 66 69 82 99 101 101 93 98 93 82 73 70 67 65 64 64 68 71 71 69 67 66
165 181 168 179 202 166 161 142 128 168 188 210 175 184 180 188 164 137 138 139 126 127 80 70 99 110 114 106 101 100 89 79 73 70 67 64 64 67 70 70 67 66 66
187 183 165 175 175 191 180 135 170 200 191 203 193 182 174 224 169 163 145 132 127 123 105 128 91 109 112 114 115 108 96 88 80 76 73 69 65 66 67 66 63 64 66
188 167 169 173 174 214 200 150 180 210 170 193 207 210 198 209 196 173 142 142 145 149 170 160 129 136 121 115 130 120 111 103 92 84 79 76 73 72 69 64 62 62 63
181 160 188 188 182 199 185 152 176 185 202 225 202 211 219 205 181 156 163 173 154 149 156 161 151 154 140 134 140 129 128 123 109 98 89 87 83 79 74 68 65 64 65
189 182 208 210 192 199 179 164 193 195 217 235 218 196 216 196 166 182 188 178 163 140 144 148 131 144 139 142 140 143 139 134 131 126 112 104 96 89 81 76 70 65 62
212 189 195 219 197 200 191 192 205 207 219 229 220 209 213 202 188 186 178 180 174 156 148 155 154 157 163 156 156 161 156 152 146 147 139 125 116 107 95 85 78 70 64
240 214 191 189 218 230 213 216 214 212 226 229 216 211 209 189 206 191 177 182 183 158 144 150 162 161 155 153 148 164 156 149 156 154 154 148 145 138 125 108 93 80 73
261 259 233 155 249 255 276 270 251 241 241 242 230 215 206 188 193 190 179 183 167 149 145 146 152 159 162 163 154 167 170 177 168 157 163 165 170 170 167 158 149 129 105
324 328 351 66 35 348 329 346 305 282 266 255 247 231 211 175 160 160 172 174 164 160 164 160 162 165 176 173 185 183 180 178 184 170 163 179 174 183 195 202 200 190 167
341 354 335 15 18 331 346 356 345 286 281 273 270 253 217 164 151 147 154 164 173 180 182 179 181 183 195 193 186 185 174 164 214 200 164 194 174 193 201 195 202 198 196
290 317 303 85 313 327 308 297 310 295 277 269 270 258 267 218 157 168 186 190 204 208 193 183 187 195 192 192 184 190 194 191 203 192 160 205 193 203 209 203 196 198 201
278 261 247 240 253 283 275 272 272 272 286 282 268 245 247 235 172 147 174 205 221 213 209 208 204 205 201 189 188 193 191 189 187 174 150 188 204 208 205 196 195 196 202
287 265 241 235 241 261 249 240 239 245 258 267 270 258 240 219 211 172 177 216 251 252 229 210 200 200 187 177 173 159 164 165 195 208 178 171 200 200 207 201 201 200 202
271 266 251 240 234 243 245 235 226 231 245 256 265 262 250 238 232 197 192 196 227 251 231 213 210 202 189 189 185 180 177 178 184 203 193 172 188 153 231 228 189 195 205